Home   Weather   Fehmarn (Puttgarden)   Past weeks

Flag for Germany Past Weather in Fehmarn (Puttgarden), Schleswig-Holstein, Germany — Yesterday and Last 2 Weeks

Now
44 °F

Scattered clouds.


Feels Like: 40 °F
Forecast: 41 / 49 °F
Wind: 7 mph from West

Location: Westermarkelsdorf

Current Time: Apr 27, 2017 at 9:35:15 am

Latest Report: Apr 27, 2017 at 9:00 am


Visibility: 19 mi

Pressure: 29.91 "Hg

Humidity: 58%

Dew Point: 30 °F

Location of Fehmarn (Puttgarden)Location

Past Weather in Fehmarn (Puttgarden) — Graph

°F

Fehmarn (Puttgarden) Temperature Yesterday

Maximum temperature yesterday: 46 °F (at 6:00 pm)
Minimum temperature yesterday: 40 °F (at 3:00 am)
Average temperature yesterday: 43 °F

High & Low Weather Summary for the Past Weeks

 TemperatureHumidityPressure
High51 °F (Apr 21, 3:00 pm)100% (Apr 12, 7:00 pm)30.63 "Hg (Apr 12, 7:00 pm)
Low35 °F (Apr 19, 10:00 pm)45% (Apr 19, 6:00 pm)29.58 "Hg (Apr 25, 9:00 am)
Average44 °F78%29.99 "Hg
* Reported Apr 12 7:00 am — Apr 27 7:00 am, Fehmarn (Puttgarden), Weather by CustomWeather, © 2017

Note: Actual official high and low records may vary slightly from our data, if they occured in-between our weather recording intervals... More about our weather records

Advertising

Fehmarn (Puttgarden) Weather History for the Previous 24 Hours

Scroll right to see more
 ConditionsComfort  
Time TempWeatherWind HumidityBarometerVisibility
7:00 am
Thu, Apr 27
42 °FPassing clouds.8 mph75%29.91 "Hg19 mi
6:00 am43 °FSunny.9 mph77%29.90 "Hg43 mi
4:00 am43 °FClear.8 mph86%29.89 "Hg25 mi
3:00 am43 °FClear.8 mph83%29.90 "Hg31 mi
1:00 am42 °FClear.6 mph84%29.90 "Hg28 mi
12:00 am43 °FPassing clouds.6 mph74%29.90 "Hg43 mi
10:00 pm
Wed, Apr 26
44 °FClear.5 mph79%29.90 "Hg43 mi
9:00 pm44 °FClear.6 mph72%29.90 "Hg43 mi
7:00 pm45 °FSunny.5 mph61%29.88 "Hg43 mi
6:00 pm46 °FSunny.3 mph59%29.88 "Hg31 mi
4:00 pm45 °FSunny.3 mph64%29.88 "Hg28 mi
3:00 pm46 °FSunny.3 mph62%29.87 "Hg15 mi
1:00 pm45 °FSunny.3 mph68%29.85 "Hg22 mi
12:00 pm44 °FSunny.5 mph72%29.85 "HgN/A
10:00 am43 °FPassing clouds.5 mph74%29.83 "Hg28 mi
9:00 am42 °FPassing clouds.5 mph75%29.81 "Hg37 mi
Weather by CustomWeather, © 2017

See weather overviewHow to use our weather pages